Location: Columbia
(38.9520°N, 92.3340°W)
Time: 06:05:18
(UTC-05:00)

SL-08 RB Rocket - Visible Passes

Search period start: 28 August 2014 00:00
Search period end: 07 September 2014 00:00
Orbit: 651 x 688 km, 98.1° (Epoch: 25 August)

Date Brightness Start Highest point End Pass type
(mag) Time Alt. Az. Time Alt. Az. Time Alt. Az.
28 Aug 5.3 21:53:58 22° NE 21:53:58 22° NE 21:56:29 10° NNE visible
28 Aug 6.2 23:32:10 19° NW 23:32:10 19° NW 23:33:45 10° NW visible
29 Aug 5.1 22:27:00 32° NNE 22:27:00 32° NNE 22:29:37 10° N visible
30 Aug 5.9 21:21:50 12° NE 21:21:50 12° NE 21:22:52 10° NE visible
30 Aug 5.6 23:00:02 28° NNW 23:00:02 28° NNW 23:02:13 10° NNW visible
31 Aug 5.4 21:54:52 21° NE 21:54:52 21° NE 21:57:05 10° NNE visible
31 Aug 6.3 23:33:04 17° NW 23:33:04 17° NW 23:34:19 10° NW visible
01 Sep 5.3 22:27:54 28° N 22:27:54 28° N 22:30:12 10° N visible
02 Sep 5.9 21:22:44 11° NE 21:22:44 11° NE 21:23:31 10° NE visible
02 Sep 5.8 23:00:56 24° NNW 23:00:56 24° NNW 23:02:48 10° NNW visible
03 Sep 5.6 21:55:46 20° NNE 21:55:46 20° NNE 21:57:41 10° NNE visible
03 Sep 6.5 23:33:58 15° NW 23:33:58 15° NW 23:34:53 10° NW visible
04 Sep 5.5 22:28:48 25° N 22:28:48 25° N 22:30:47 10° N visible
05 Sep 6.0 21:23:38 11° NE 21:23:38 11° NE 21:24:10 10° NE visible
05 Sep 6.0 23:01:50 21° NNW 23:01:50 21° NNW 23:03:23 10° NNW visible
06 Sep 5.7 21:56:40 18° NNE 21:56:40 18° NNE 21:58:17 10° NNE visible
06 Sep 6.7 23:34:52 13° NW 23:34:52 13° NW 23:35:27 10° NW visible
